Date,TemperatureHighF,TemperatureAvgF,TemperatureLowF,DewpointHighF,DewpointAvgF,DewpointLowF,HumidityHigh,HumidityAvg,HumidityLow,PressureMaxIn,PressureMinIn,WindSpeedMaxMPH,WindSpeedAvgMPH,GustSpeedMaxMPH,PrecipitationSumIn
2013-1-1,28.2,17.4,11.3,26.7,15.5,8.9,94,92,90,30.40,30.26,13,4,14,0.03
2013-1-2,32.3,19.9,3.0,31.2,18.2,0.3,97,93,88,30.35,30.17,13,4,15,0.01
2013-1-3,24.6,22.8,20.1,23.4,21.6,18.6,95,95,94,30.36,30.34,12,5,13,0.00
2013-1-5,33.6,28.4,23.5,31.7,26.0,21.1,95,90,86,30.31,30.14,18,6,18,0.00
2013-1-6,35.9,26.2,17.4,30.3,22.9,15.0,92,87,78,30.42,30.17,14,5,14,0.00
2013-1-7,44.6,35.3,27.9,33.1,28.7,23.7,87,77,62,30.17,29.97,23,7,23,0.00
2013-1-8,45.8,36.7,30.3,33.7,29.5,26.3,86,75,61,30.22,29.92,12,3,15,0.00
2013-1-9,42.0,32.8,24.6,33.0,27.4,21.2,89,81,67,30.45,30.22,13,3,13,0.00
2013-1-10,39.4,37.5,35.1,38.9,36.6,33.5,98,96,94,30.03,29.66,6,3,13,0.31
2013-1-11,53.6,43.9,30.6,44.1,36.0,24.9,98,75,46,29.79,29.35,33,15,35,0.00
2013-1-12,30.6,23.7,13.8,24.9,15.8,7.9,79,72,60,30.23,29.79,21,12,23,0.00
2013-1-13,24.8,15.3,7.3,11.9,7.9,3.1,84,73,55,30.44,30.22,20,5,20,0.00
2013-1-14,30.8,18.6,8.0,18.3,11.8,4.4,89,76,50,30.55,30.41,7,2,8,0.00
2013-1-15,35.5,24.4,16.6,23.8,17.4,11.7,86,75,57,30.41,30.16,10,2,10,0.00
2013-1-16,52.9,34.7,19.8,34.9,26.2,15.9,91,73,46,30.29,30.07,20,6,20,0.00
2013-1-17,54.3,37.9,27.1,34.2,29.1,23.7,89,72,44,30.49,30.29,13,4,13,0.00
2013-1-18,58.8,41.7,29.4,34.5,30.1,24.3,85,66,36,30.31,29.95,28,8,29,0.00
2013-1-19,60.2,42.7,30.1,33.6,28.6,25.1,84,60,32,30.28,29.94,23,7,23,0.00
2013-1-20,35.1,26.7,19.6,27.5,18.9,13.5,88,73,54,30.49,30.25,19,6,19,0.00
2013-1-21,30.7,20.7,15.2,21.5,15.3,9.6,90,79,66,30.48,30.32,18,5,19,0.00
2013-1-22,32.2,21.7,12.8,17.6,13.2,9.1,86,70,53,30.37,30.26,16,4,16,0.00
2013-1-23,45.1,27.4,17.5,27.7,19.6,13.2,88,73,48,30.46,30.20,23,8,24,0.00
2013-1-24,25.5,19.4,10.9,14.7,9.3,5.6,81,65,51,30.48,30.19,18,5,19,0.00
2013-1-25,53.6,33.7,15.8,30.3,21.5,10.2,85,63,39,30.31,30.20,11,2,11,0.00
2013-1-26,58.9,43.6,29.8,41.0,30.8,24.8,92,64,29,30.23,29.91,27,8,27,0.04
2013-1-27,66.0,45.0,32.8,54.4,41.5,30.6,100,88,55,29.93,29.60,28,9,28,0.02
2013-1-28,70.7,43.4,28.4,53.6,38.1,27.2,100,85,42,29.81,29.51,36,5,36,0.00
2013-1-29,36.8,34.4,30.5,35.3,32.2,29.5,96,92,83,29.71,29.55,25,9,29,0.02
2013-1-30,30.5,23.6,14.1,29.7,20.4,10.7,97,87,74,29.98,29.70,30,8,30,0.01
2013-1-31,22.1,17.3,10.0,17.1,11.9,4.0,91,79,65,30.50,29.95,23,6,23,0.00
2013-2-1,33.9,21.4,6.7,25.8,15.5,3.3,88,78,66,30.48,30.15,26,8,27,0.00
2013-2-2,54.7,38.6,26.4,41.0,31.0,23.9,93,75,51,30.28,30.15,19,6,20,0.02
2013-2-3,54.1,39.8,27.3,33.3,29.0,22.6,88,67,43,30.27,29.80,22,6,23,0.00
2013-2-4,40.0,34.3,28.7,32.0,29.2,26.0,91,82,68,30.00,29.78,17,6,18,0.00
2013-2-5,57.8,39.9,26.1,37.7,30.8,23.8,93,72,44,30.06,29.89,16,5,16,0.00
2013-2-6,61.2,43.6,29.2,48.5,38.2,25.6,96,82,60,30.03,29.75,26,7,26,0.00
2013-2-7,53.9,43.4,29.9,46.5,35.4,26.8,97,75,46,30.21,29.83,24,8,25,0.13
2013-2-8,37.4,30.0,24.2,35.1,28.2,22.2,97,93,85,30.32,30.07,21,7,21,0.00
2013-2-9,53.4,40.1,31.7,43.6,36.3,29.6,96,87,68,30.08,29.53,33,14,33,0.00
2013-2-10,44.8,37.8,29.9,43.2,30.6,22.8,97,76,62,30.01,29.31,39,16,39,0.01
2013-2-11,40.9,31.7,22.9,23.1,20.4,17.4,83,64,43,30.24,30.02,21,6,25,0.00
2013-2-12,50.1,34.7,23.6,29.2,21.7,16.1,87,61,37,30.20,29.97,14,3,15,0.00
2013-2-13,56.9,38.7,25.0,28.3,23.5,16.7,79,57,31,29.99,29.82,24,7,24,0.00
2013-2-14,48.0,37.3,24.5,32.8,26.6,18.1,89,67,42,30.35,29.88,28,9,31,0.00
2013-2-15,42.2,26.7,16.4,24.0,16.5,11.0,89,68,34,30.44,30.30,25,6,25,0.00
2013-2-16,53.4,31.7,12.8,29.9,19.7,7.9,85,64,37,30.42,29.99,27,5,28,0.00
2013-2-17,70.1,45.1,23.6,36.0,27.9,19.9,89,57,21,29.99,29.46,26,6,29,0.00
2013-2-18,47.0,39.4,23.4,32.6,25.8,14.9,76,59,41,30.13,29.40,33,11,33,0.00
2013-2-19,38.4,26.4,16.9,17.9,13.5,5.4,84,60,37,30.37,30.13,18,6,18,0.00
2013-2-20,24.6,20.9,17.2,22.6,13.9,4.2,93,76,52,30.31,30.09,20,11,21,0.00
2013-2-21,21.2,19.8,11.7,19.6,18.0,9.5,94,93,91,30.12,29.83,24,9,24,0.00
2013-2-22,25.6,13.8,6.6,23.1,11.5,4.0,92,90,89,30.17,29.95,14,5,15,0.05
2013-2-23,32.4,18.5,5.2,30.3,16.2,2.7,93,90,89,30.13,29.91,15,5,15,0.01
2013-2-24,36.9,27.8,15.1,35.8,26.0,13.2,96,93,89,30.03,29.88,20,6,20,0.04
2013-2-25,33.8,31.0,29.2,31.0,29.0,27.0,97,92,85,30.04,29.85,26,13,26,0.01
2013-2-26,35.6,28.7,23.7,28.4,25.2,21.2,95,87,74,29.99,29.82,18,7,19,0.00
2013-2-27,38.9,31.1,23.6,30.0,26.6,21.6,95,84,66,30.19,29.98,23,8,25,0.04
2013-2-28,36.4,31.7,26.7,29.0,27.0,23.3,89,83,73,30.27,30.19,19,6,19,0.00
2013-3-1,32.8,28.2,20.8,25.7,23.4,17.5,91,82,72,30.40,30.25,19,6,19,0.00
2013-3-2,39.9,27.9,15.5,32.0,23.7,13.6,94,85,71,30.40,30.10,17,5,17,0.00
2013-3-3,52.2,37.9,28.6,42.2,33.8,26.6,95,86,67,30.10,29.62,20,6,22,0.00
2013-3-4,42.7,36.6,29.7,37.5,32.8,21.0,95,86,58,30.13,29.60,33,9,33,0.01
2013-3-5,41.2,32.1,24.8,22.8,19.4,16.2,76,60,45,30.33,30.13,30,13,32,0.00
2013-3-6,44.4,30.7,17.8,26.1,21.7,14.3,89,70,46,30.45,30.16,23,10,23,0.00
2013-3-7,61.5,42.7,28.0,35.5,29.9,24.6,88,64,36,30.17,29.98,25,15,25,0.00
2013-3-8,66.2,52.7,36.0,50.7,43.4,30.1,89,72,54,30.03,29.75,27,13,28,0.00
2013-3-9,67.2,53.0,34.3,56.5,49.0,31.9,96,87,59,29.77,29.42,30,14,31,0.15
2013-3-10,34.3,27.4,22.1,32.0,25.9,20.0,96,94,91,30.08,29.63,30,14,36,0.03
2013-3-11,37.7,25.7,11.0,33.8,23.1,8.7,94,90,83,30.08,29.95,13,4,15,0.02
2013-3-12,45.6,36.3,29.5,31.6,25.8,19.4,93,68,38,30.37,30.07,23,6,24,0.00
2013-3-13,56.2,37.5,21.4,37.3,27.3,17.3,89,69,42,30.44,30.18,20,6,22,0.00
2013-3-14,71.8,52.5,37.5,46.7,40.0,32.3,87,66,37,30.18,30.02,15,5,17,0.00
2013-3-15,84.6,59.0,41.9,51.8,43.2,36.6,85,59,25,30.02,29.59,24,4,27,0.00
2013-3-16,51.5,38.4,30.8,45.5,32.2,27.0,92,78,65,30.08,29.70,30,14,36,0.00
2013-3-17,40.7,33.5,29.4,36.0,31.1,27.6,94,91,81,30.05,29.69,19,7,20,0.02
2013-3-18,53.7,41.3,31.8,35.3,29.3,21.8,96,67,34,30.07,29.78,28,7,29,0.00
2013-3-19,52.9,38.9,31.3,35.1,28.8,20.2,84,68,45,30.28,30.06,21,4,22,0.00
2013-3-20,46.0,34.0,22.0,32.1,22.5,18.0,87,65,40,30.44,30.03,15,5,15,0.00
2013-3-21,47.7,37.1,30.9,28.8,21.6,15.9,84,55,34,30.03,29.74,25,12,29,0.00
2013-3-22,45.3,34.5,28.5,34.4,29.7,26.7,94,83,62,29.98,29.88,15,4,16,0.00
2013-3-23,33.3,31.4,28.6,30.6,29.2,27.2,96,92,86,30.08,29.94,33,10,33,0.00
2013-3-24,36.5,27.7,20.9,28.0,22.1,17.9,96,80,58,30.22,30.07,27,12,28,0.00
2013-3-25,33.8,26.8,21.3,21.4,18.6,16.9,84,72,53,30.43,30.22,21,9,26,0.00
2013-3-26,47.5,30.9,14.8,28.3,21.2,11.2,90,70,42,30.44,30.19,19,6,20,0.00
2013-3-27,58.2,43.5,31.5,34.6,29.9,24.8,80,61,38,30.21,30.07,20,8,24,0.00
2013-3-28,65.6,46.2,27.4,39.2,32.6,25.1,93,64,28,30.18,30.05,15,4,18,0.00
2013-3-29,72.9,55.2,38.9,52.2,44.1,33.2,89,68,43,30.14,29.94,18,6,21,0.00
2013-3-30,69.9,58.1,49.4,57.6,50.3,42.3,100,78,44,30.00,29.83,24,7,25,0.12
2013-3-31,65.7,51.5,37.5,46.3,38.1,30.5,96,66,28,30.01,29.86,18,6,27,0.03
2013-4-1,51.2,37.9,27.5,36.4,24.2,16.0,84,59,42,30.29,29.95,29,10,31,0.00
2013-4-2,53.9,40.3,27.9,29.6,24.8,20.4,83,56,34,30.32,30.20,14,4,15,0.01
2013-4-3,50.6,41.8,34.3,32.8,29.6,24.9,81,63,37,30.32,30.22,18,5,25,0.00
2013-4-4,64.8,47.9,28.6,42.5,35.4,25.9,95,65,40,30.24,30.05,14,3,14,0.00
2013-4-5,72.3,54.4,35.9,45.6,39.4,32.5,93,61,29,30.08,29.64,33,12,36,0.00
2013-4-6,74.1,60.7,48.7,47.0,44.6,40.5,87,58,34,29.75,29.57,27,9,33,0.00
2013-4-7,78.3,59.4,46.4,58.7,46.4,40.3,94,66,31,29.76,29.51,35,8,35,0.10
2013-4-8,75.6,63.7,51.2,64.4,58.9,49.5,100,86,60,29.60,29.47,29,8,30,0.00
2013-4-9,66.3,45.0,27.3,61.7,42.8,25.7,96,92,82,30.01,29.39,26,14,32,0.11
2013-4-10,30.8,28.6,26.7,29.1,26.9,25.0,95,93,92,30.08,29.91,17,8,19,0.00
2013-4-11,42.7,32.5,23.5,31.3,27.0,21.3,93,81,60,29.96,29.77,23,9,25,0.17
2013-4-12,56.0,40.3,25.6,39.1,31.3,22.8,91,73,45,30.03,29.86,15,5,20,0.01
2013-4-13,68.6,52.8,33.2,52.1,42.9,30.9,94,71,47,30.04,29.41,28,9,33,0.00
2013-4-14,67.3,59.1,42.4,50.6,39.6,26.0,72,51,25,29.69,29.26,37,13,40,0.00
2013-4-15,51.7,43.3,35.5,31.8,27.9,21.7,77,56,37,30.00,29.66,21,8,23,0.00
2013-4-16,47.8,42.0,36.6,33.3,29.6,26.9,78,62,45,30.15,29.97,21,9,26,0.00
2013-4-17,43.9,39.2,35.5,40.2,37.4,33.2,100,93,66,30.06,29.76,24,10,29,1.90
2013-4-18,37.1,33.2,29.8,33.3,29.2,25.7,97,86,70,30.07,29.79,31,13,33,0.13
2013-4-19,56.4,40.9,27.0,38.7,30.8,23.4,87,69,43,30.08,30.01,21,7,26,0.01
2013-4-20,59.9,45.2,31.1,43.1,34.4,26.5,83,67,50,30.11,29.96,22,10,26,0.00
2013-4-21,69.9,56.8,41.9,48.6,44.1,38.2,88,65,42,30.06,29.93,31,11,36,0.00
2013-4-22,52.7,45.3,31.8,50.2,42.5,30.1,97,90,77,30.22,29.84,31,8,34,0.55
2013-4-23,35.5,31.6,28.6,31.1,28.7,25.2,97,89,70,30.28,30.13,26,9,32,0.12
2013-4-24,59.6,40.9,22.2,43.5,30.8,19.6,92,71,36,30.29,30.11,17,5,25,0.01
2013-4-25,70.7,51.6,34.7,43.4,37.4,30.4,88,62,31,30.26,29.99,31,9,33,0.00
2013-4-26,67.0,54.4,47.6,55.2,47.7,41.9,90,78,62,30.13,29.96,21,9,25,0.00
2013-4-27,70.2,55.5,45.3,54.9,49.0,43.8,96,81,43,30.13,29.92,9,2,12,0.00
2013-4-28,83.1,63.0,45.4,59.5,53.0,44.1,100,73,42,29.92,29.60,26,8,28,0.00
2013-4-29,85.0,67.7,49.1,63.3,54.5,45.4,93,65,38,29.68,29.41,27,7,28,0.00
2013-4-30,83.6,71.9,62.6,64.5,58.2,52.3,78,63,47,29.65,29.45,30,10,33,0.00
2013-5-1,62.5,43.4,34.7,53.6,39.2,33.4,95,86,48,30.40,29.66,36,20,40,0.51
2013-5-2,52.9,42.3,34.1,34.5,32.5,29.3,96,71,41,30.57,30.39,32,12,36,0.06
2013-5-3,58.9,43.8,28.3,33.4,29.0,23.7,89,60,31,30.41,30.03,28,8,29,0.00
2013-5-4,49.6,43.8,35.9,38.9,34.1,27.8,83,69,61,30.13,29.97,25,12,32,0.00
2013-5-5,65.8,51.6,42.1,51.1,44.2,38.5,90,77,56,30.18,30.05,15,6,21,0.00
2013-5-6,69.7,55.9,40.0,51.4,46.1,38.6,97,73,43,30.13,29.98,14,3,15,0.00
2013-5-7,71.3,59.6,50.1,58.2,53.2,47.5,94,80,59,30.00,29.83,21,6,23,0.15
2013-5-8,78.3,65.6,55.4,64.0,58.7,52.8,94,80,54,29.88,29.74,29,8,33,0.50
2013-5-9,68.5,59.0,54.4,59.9,55.4,52.7,96,88,67,29.97,29.71,21,6,26,0.14
2013-5-10,71.3,60.4,49.4,56.4,51.5,46.8,96,75,46,30.07,29.96,16,5,19,0.00
2013-5-11,68.4,57.6,50.0,48.8,41.5,32.9,91,59,28,30.25,30.02,27,8,30,0.00
2013-5-12,69.4,54.5,39.7,50.1,42.0,33.7,82,64,41,30.25,30.02,22,7,24,0.02
2013-5-13,86.6,64.5,43.2,61.1,52.9,41.3,95,70,36,30.04,29.82,18,7,21,0.00
2013-5-14,96.5,76.2,59.8,59.1,53.8,47.3,84,51,19,29.82,29.60,30,10,35,0.00
2013-5-15,88.0,74.3,61.3,66.0,59.0,54.0,86,61,40,29.74,29.64,19,7,21,0.00
2013-5-16,79.9,66.9,56.3,65.3,60.4,54.6,97,81,55,29.79,29.67,17,5,19,0.00
2013-5-17,84.8,71.4,56.8,67.0,62.2,55.1,97,75,50,29.81,29.70,19,6,22,0.00
2013-5-18,85.5,71.8,61.5,72.6,66.5,59.8,97,84,62,29.77,29.51,22,9,25,1.04
2013-5-19,78.8,68.3,58.5,67.2,61.5,50.5,94,80,54,29.60,29.38,42,6,42,0.00
2013-5-20,81.0,67.0,52.7,62.2,54.6,48.3,93,67,40,29.68,29.54,25,7,25,0.00
2013-5-21,70.8,60.5,51.2,52.3,49.1,46.6,91,68,45,29.75,29.65,27,8,28,0.00
2013-5-22,74.4,59.9,48.2,56.0,50.1,44.8,92,72,48,29.94,29.75,20,7,23,0.00
2013-5-23,71.3,58.7,46.4,57.6,51.6,44.8,95,79,57,30.12,29.95,22,7,22,0.00
2013-5-24,76.7,65.2,55.1,66.1,58.8,51.8,90,80,63,30.15,29.92,27,12,29,0.00
2013-5-25,85.8,75.2,67.0,67.6,66.1,64.3,95,75,52,30.00,29.77,32,12,38,0.00
2013-5-26,87.9,75.9,67.7,72.7,68.3,64.4,91,78,59,29.88,29.65,28,14,30,0.00
2013-5-27,86.3,74.5,64.7,73.5,68.5,61.3,93,82,62,29.66,29.37,32,13,35,0.28
2013-5-28,88.6,73.1,63.4,74.5,67.8,59.8,100,85,57,29.58,29.40,42,8,44,0.32
2013-5-29,80.6,69.9,59.5,72.0,65.7,57.6,95,87,70,29.56,29.35,36,14,47,0.18
2013-5-30,79.3,64.1,58.1,64.6,58.7,52.5,96,84,51,29.62,29.38,30,6,34,0.60
2013-5-31,82.0,68.9,56.7,63.0,55.2,48.4,93,65,32,29.73,29.54,15,3,18,0.00
2013-6-1,68.6,59.4,51.8,54.3,50.5,47.2,88,73,59,30.03,29.72,25,8,33,0.00
2013-6-2,72.4,59.2,45.2,51.8,47.8,43.3,95,69,39,30.11,29.92,14,4,18,0.00
2013-6-3,79.8,65.1,50.6,62.4,55.4,47.1,94,73,53,29.94,29.66,27,12,29,0.00
2013-6-4,84.1,71.8,62.2,71.3,64.7,60.4,95,79,55,29.84,29.65,25,6,29,0.00
2013-6-5,70.6,62.9,56.2,66.8,57.6,52.2,97,84,60,29.98,29.80,25,8,29,1.22
2013-6-6,75.8,63.3,50.1,58.2,53.4,48.7,96,73,47,29.99,29.88,15,5,18,0.01
2013-6-7,78.9,66.1,51.9,60.1,54.9,48.6,91,69,49,29.98,29.79,10,3,12,0.00
2013-6-8,81.3,66.4,58.7,66.7,60.3,55.9,95,82,56,29.79,29.58,24,8,31,0.26
2013-6-9,86.2,70.1,55.2,62.2,56.4,52.4,93,66,33,29.81,29.73,25,7,25,0.00
2013-6-10,91.7,75.3,56.4,74.6,63.4,51.4,86,68,49,29.81,29.58,22,7,24,0.00
2013-6-11,98.5,84.1,69.8,71.0,66.8,63.8,85,59,37,29.69,29.51,25,10,33,0.00
2013-6-12,96.0,83.0,68.6,72.6,64.5,56.6,74,55,33,29.90,29.50,32,11,32,0.00
2013-6-13,85.3,71.6,56.6,65.7,59.4,52.6,89,67,48,30.00,29.84,18,6,22,0.00
2013-6-14,100.5,82.5,66.2,76.3,65.3,59.0,93,62,27,29.85,29.63,31,10,35,0.00
2013-6-15,88.9,77.0,68.8,73.2,66.1,57.9,93,70,55,29.83,29.67,18,6,21,0.05
2013-6-16,89.3,76.5,63.4,71.0,67.8,60.6,96,77,49,29.94,29.76,25,5,33,1.57
2013-6-17,86.6,75.2,64.0,71.1,64.5,59.0,97,72,41,29.94,29.74,24,6,25,0.18
2013-6-18,88.2,72.7,64.2,69.1,64.4,59.7,95,78,43,29.95,29.82,26,4,33,0.73
2013-6-19,86.1,74.2,63.4,72.0,66.2,61.9,96,78,51,29.89,29.75,22,8,25,0.00
2013-6-20,94.3,80.1,67.8,75.2,70.1,65.0,95,73,47,29.80,29.61,27,12,32,0.00
2013-6-21,96.0,84.2,73.7,74.6,70.4,68.4,84,65,43,29.72,29.63,27,14,33,0.00
2013-6-22,94.6,82.8,74.8,71.7,68.2,65.1,77,63,42,29.75,29.57,33,14,33,0.00
2013-6-23,92.2,80.9,67.6,72.8,67.7,60.5,85,65,49,29.73,29.60,27,10,27,0.00
2013-6-24,89.0,80.9,72.9,72.4,67.6,53.7,87,65,31,29.73,29.54,28,12,30,0.03
2013-6-25,99.6,82.7,67.0,73.7,67.7,60.9,90,64,33,29.72,29.44,40,12,46,0.22
2013-6-26,101.8,84.4,67.1,70.9,66.2,61.2,89,58,29,29.75,29.61,15,4,17,0.00
2013-6-27,97.8,80.9,71.3,80.5,72.3,66.9,92,76,52,29.92,29.69,22,5,22,0.04
2013-6-28,91.5,78.9,65.4,72.4,62.7,55.5,96,63,33,29.95,29.84,22,7,26,0.00
2013-6-29,87.0,75.9,61.8,61.9,57.0,51.6,85,55,32,29.91,29.81,26,9,29,0.00
2013-6-30,81.4,70.2,57.9,61.0,55.5,51.9,90,62,40,30.03,29.89,24,8,28,0.00
2013-7-1,82.5,68.9,53.2,57.5,50.8,45.2,91,57,28,30.12,30.03,20,6,20,0.00
2013-7-2,85.0,71.9,55.6,59.4,53.9,49.8,84,56,33,30.09,29.97,13,3,16,0.00
2013-7-3,88.5,73.8,61.9,61.9,56.0,52.6,89,56,32,30.01,29.83,17,5,21,0.12
2013-7-4,91.3,75.7,60.7,60.9,55.9,52.1,79,53,29,29.88,29.74,24,8,29,0.00
2013-7-5,93.5,80.9,67.1,65.5,61.2,55.8,77,53,37,29.78,29.67,28,12,31,0.00
2013-7-6,91.3,80.9,73.1,68.6,64.7,58.9,72,59,40,29.73,29.61,31,13,33,0.00
2013-7-7,99.4,84.4,73.3,69.0,65.5,62.5,78,55,31,29.78,29.69,26,9,27,0.00
2013-7-8,101.5,85.3,72.2,71.6,66.2,61.6,84,56,30,29.86,29.73,24,9,26,0.02
2013-7-9,105.4,88.1,74.8,75.9,70.0,65.0,83,58,29,29.83,29.67,33,7,39,0.40
2013-7-10,92.0,81.2,72.2,72.7,68.6,64.5,92,68,45,29.93,29.82,19,6,21,0.00
2013-7-11,88.4,74.0,67.4,74.0,67.1,64.4,95,80,59,30.01,29.86,17,5,18,0.60
2013-7-12,97.7,86.0,70.2,76.4,70.6,64.1,83,62,43,29.84,29.71,23,12,29,0.00
2013-7-13,98.4,85.8,73.4,76.2,72.5,69.2,88,66,45,29.80,29.69,24,10,28,0.00
2013-7-14,82.2,75.6,71.2,74.9,70.5,63.2,95,85,70,30.00,29.76,24,6,29,0.13
2013-7-15,88.3,73.4,61.2,71.2,64.6,58.0,93,76,44,30.08,30.00,18,3,22,0.01
2013-7-16,88.8,75.8,61.9,69.0,65.6,60.5,96,73,49,30.17,30.08,18,6,22,0.01
2013-7-17,91.1,78.4,64.8,73.0,68.1,62.8,96,73,49,30.21,30.05,17,5,20,0.00
2013-7-18,93.3,80.7,68.3,71.7,68.0,65.5,94,68,42,30.08,29.83,29,10,31,0.00
2013-7-19,99.1,80.3,68.8,73.5,68.7,64.6,92,71,39,29.88,29.71,21,4,28,0.09
2013-7-20,94.3,75.0,67.9,75.8,69.5,65.4,96,85,49,29.85,29.71,26,4,29,0.46
2013-7-21,84.7,74.3,67.1,75.8,70.2,65.9,100,88,70,29.82,29.69,12,3,15,0.00
2013-7-22,88.4,78.3,69.2,77.4,70.6,64.2,97,79,47,29.77,29.63,22,4,23,0.01
2013-7-23,90.9,75.8,65.6,72.8,67.1,63.9,95,76,50,29.89,29.70,22,6,28,0.22
2013-7-24,90.0,75.0,62.5,66.6,63.3,57.4,97,71,37,29.99,29.86,12,3,14,0.00
2013-7-25,73.5,69.9,67.3,71.0,67.1,63.4,97,91,79,29.97,29.87,17,4,20,0.32
2013-7-26,81.7,72.0,63.0,69.5,64.4,56.3,100,79,56,30.04,29.90,21,7,23,0.01
2013-7-27,67.0,61.0,57.0,59.5,57.2,54.2,96,87,70,30.11,29.95,14,2,17,0.61
2013-7-28,62.6,60.6,58.1,62.2,59.5,57.2,100,97,92,29.99,29.92,15,3,15,0.89
2013-7-29,68.5,64.6,61.3,68.2,64.2,60.7,100,99,99,29.95,29.85,15,5,18,0.66
2013-7-30,79.8,70.5,66.1,71.7,68.4,65.9,100,93,74,30.03,29.91,11,3,12,0.00
2013-7-31,86.8,74.0,62.2,75.6,68.4,61.9,100,84,59,30.07,29.96,10,2,11,0.01
2013-8-1,87.3,77.0,65.1,75.3,69.8,63.5,100,79,63,30.02,29.72,20,6,24,0.00
2013-8-2,89.0,76.2,63.9,78.1,70.7,62.7,97,84,65,29.90,29.70,30,7,36,0.19
2013-8-3,79.0,73.7,67.9,72.9,69.9,66.2,97,88,78,30.01,29.82,21,7,24,0.00
2013-8-4,81.9,74.2,69.7,74.5,70.5,65.5,97,89,76,30.00,29.87,15,5,18,0.00
2013-8-5,83.2,74.8,69.1,76.8,72.7,68.5,100,94,78,29.90,29.70,13,3,16,0.01
2013-8-6,88.9,78.2,67.8,78.0,73.4,67.5,100,86,67,29.78,29.67,12,2,12,0.01
2013-8-7,82.4,75.3,69.7,74.2,69.6,65.4,100,84,59,29.87,29.71,27,5,28,0.08
2013-8-8,80.3,70.5,66.0,70.0,66.0,63.2,96,86,67,29.94,29.81,15,3,15,0.03
2013-8-9,81.6,71.0,63.2,68.7,65.0,61.3,100,83,55,30.06,29.92,11,3,15,0.00
2013-8-10,85.0,72.6,59.7,70.1,65.1,58.6,100,79,54,30.12,29.96,12,2,13,0.00
2013-8-11,86.3,74.2,62.8,73.9,68.2,61.9,100,83,63,30.04,29.89,18,5,19,0.00
2013-8-12,83.8,73.4,63.6,72.9,67.8,62.4,100,84,62,29.99,29.87,31,4,33,0.19
2013-8-13,79.6,71.0,63.5,71.5,67.6,61.4,100,89,74,30.06,29.94,16,3,17,0.07
2013-8-14,76.9,68.1,58.2,66.8,62.4,57.4,100,83,63,30.09,29.95,14,3,15,0.01
2013-8-15,86.8,69.4,60.8,75.8,64.7,59.2,97,86,62,29.99,29.82,17,5,21,0.00
2013-8-16,80.2,69.4,60.4,70.1,64.3,59.4,100,85,63,30.05,29.95,13,3,15,0.00
2013-8-17,80.3,69.9,60.9,68.4,63.1,59.5,96,80,63,30.08,29.97,17,6,17,0.00
2013-8-18,81.4,70.3,59.3,66.6,62.3,57.3,95,77,55,30.05,29.92,18,6,20,0.00
2013-8-19,87.9,74.4,63.7,71.9,66.5,62.1,96,78,54,29.99,29.82,25,7,33,0.00
2013-8-20,91.5,77.3,65.7,71.4,67.9,64.5,96,75,49,29.90,29.81,26,9,28,0.00
2013-8-21,94.0,79.1,66.7,73.4,68.1,64.5,94,72,45,29.88,29.81,22,9,25,0.00
2013-8-22,93.0,78.8,66.7,72.4,66.6,61.6,87,68,44,29.94,29.84,20,7,22,0.00
2013-8-23,92.0,78.8,68.0,74.8,70.8,66.0,96,78,54,29.92,29.79,22,9,24,0.00
2013-8-24,94.8,82.8,71.6,75.3,71.8,68.9,93,71,50,29.93,29.85,25,10,28,0.00
2013-8-25,96.5,83.3,72.1,73.4,70.9,68.5,89,68,45,29.99,29.90,24,10,26,0.00
2013-8-26,96.9,83.8,72.3,71.7,69.2,67.1,89,64,40,29.98,29.86,29,10,31,0.00
2013-8-27,97.0,82.7,71.8,70.0,65.7,59.7,81,60,31,29.88,29.80,27,9,29,0.00
2013-8-28,94.2,80.0,66.3,73.3,68.4,63.1,92,70,44,29.90,29.83,16,5,18,0.00
2013-8-29,100.0,83.1,69.9,73.9,69.2,64.5,96,67,35,29.87,29.76,22,6,25,0.00
2013-8-30,104.0,85.0,68.4,71.3,65.5,62.1,84,56,28,29.82,29.68,16,4,23,0.00
2013-8-31,99.8,86.2,73.1,75.7,71.6,67.1,89,65,36,29.79,29.64,18,4,23,0.00
2013-9-1,88.5,78.7,68.2,70.9,63.5,53.6,83,62,31,29.92,29.64,29,8,29,0.00
2013-9-2,87.5,72.4,56.0,63.3,59.0,53.4,95,66,38,30.01,29.90,13,3,15,0.00
2013-9-3,91.1,74.1,58.5,65.3,60.6,55.9,94,66,38,30.01,29.89,16,4,24,0.00
2013-9-4,91.3,75.9,60.8,66.2,60.9,57.3,90,62,40,30.04,29.94,18,6,19,0.00
2013-9-5,94.5,79.5,65.7,70.0,63.9,59.6,87,62,35,30.04,29.93,19,7,21,0.00
2013-9-6,99.6,82.1,65.6,70.1,65.6,62.3,91,61,31,29.97,29.78,18,7,23,0.00
2013-9-7,104.3,85.8,70.4,69.3,65.5,61.2,80,55,26,29.82,29.72,21,6,21,0.00
2013-9-8,103.1,86.1,71.2,67.8,64.4,62.3,76,51,29,29.77,29.65,19,5,23,0.00
2013-9-9,97.2,84.1,71.7,66.1,60.6,53.7,66,47,25,29.76,29.67,33,11,33,0.00
2013-9-10,96.7,81.5,72.5,71.6,63.7,56.6,75,57,35,29.91,29.76,28,8,31,0.00
2013-9-11,95.5,78.4,67.7,70.5,66.6,62.4,96,70,40,30.03,29.88,17,4,23,0.26
2013-9-12,77.4,71.5,68.1,72.0,68.9,60.2,100,92,76,30.09,30.01,11,2,14,0.05
2013-9-13,73.5,66.4,59.7,60.4,55.5,52.5,84,69,51,30.12,29.96,15,4,15,0.00
2013-9-14,81.9,68.4,55.7,66.1,58.9,52.5,90,73,51,29.98,29.76,21,7,23,0.00
2013-9-15,76.8,68.8,62.7,68.1,62.9,57.8,89,82,73,30.11,29.79,24,9,27,0.00
2013-9-16,62.7,58.2,56.3,58.8,57.0,54.9,100,96,83,30.18,30.09,14,5,18,0.53
2013-9-17,82.4,69.5,59.4,71.8,65.9,58.8,100,90,69,30.10,29.75,22,8,25,0.15
2013-9-18,93.2,79.6,69.1,72.0,67.8,63.5,92,70,43,29.78,29.57,32,12,37,0.00
2013-9-19,81.7,74.0,60.0,68.5,61.9,53.3,81,66,57,29.96,29.61,25,9,26,0.00
2013-9-20,77.2,63.2,49.5,54.2,49.9,46.6,92,65,37,30.08,29.91,16,4,19,0.00
2013-9-21,85.4,67.0,49.9,57.2,50.8,46.6,94,61,28,29.95,29.75,19,5,22,0.00
2013-9-22,82.8,68.3,56.1,54.7,52.5,50.3,85,60,36,29.80,29.65,29,11,31,0.00
2013-9-23,80.5,67.3,56.0,56.0,52.3,49.6,81,61,40,29.68,29.49,34,13,40,0.00
2013-9-24,76.6,65.8,57.9,57.9,55.6,52.9,87,71,49,29.85,29.62,23,9,27,0.00
2013-9-25,83.7,66.5,49.7,60.2,54.9,47.9,97,70,39,29.85,29.59,26,8,28,0.00
2013-9-26,93.5,76.9,62.0,62.0,59.4,56.2,83,58,34,29.62,29.53,33,14,38,0.00
2013-9-27,91.1,79.8,71.2,66.3,60.8,55.8,67,53,42,29.67,29.55,30,14,33,0.00
2013-9-28,73.5,60.3,50.7,65.9,49.1,41.5,95,70,37,30.03,29.53,24,10,31,0.57
2013-9-29,78.6,60.4,44.9,51.7,45.7,41.4,90,63,32,30.05,29.82,22,6,22,0.00
2013-9-30,82.5,63.7,47.9,55.2,51.0,44.9,94,67,38,29.84,29.66,19,7,23,0.00
2013-10-1,85.2,68.1,51.4,61.8,56.7,48.3,93,70,44,29.85,29.71,15,4,15,0.00
2013-10-2,84.1,72.5,62.2,70.5,65.2,59.8,93,79,62,29.84,29.68,24,9,28,0.00
2013-10-3,88.3,74.4,62.3,69.0,65.7,59.4,91,76,51,29.69,29.50,26,11,28,0.00
2013-10-4,87.0,70.6,47.8,67.6,56.5,32.3,85,63,36,29.93,29.51,33,14,36,0.00
2013-10-5,61.6,49.5,41.2,36.4,33.3,31.3,76,55,37,30.00,29.91,32,11,36,0.00
2013-10-6,69.1,54.3,43.6,38.1,33.5,22.9,72,50,19,30.04,29.91,36,12,36,0.00
2013-10-7,77.8,57.5,37.7,42.1,38.1,32.1,89,53,26,30.12,29.94,18,5,20,0.00
2013-10-8,81.7,65.0,46.8,48.9,43.9,37.9,77,49,29,29.95,29.77,31,12,32,0.00
2013-10-9,83.4,66.8,52.7,54.5,50.5,48.3,86,60,32,29.85,29.78,28,13,30,0.00
2013-10-10,84.0,69.5,56.9,60.2,56.8,52.5,86,66,42,29.85,29.60,30,14,31,0.00
2013-10-11,80.6,66.3,52.5,59.9,52.2,43.6,95,64,29,29.86,29.53,25,9,26,0.22
2013-10-12,69.2,55.4,43.2,45.0,39.3,34.3,88,59,30,30.22,29.86,16,3,17,0.00
2013-10-13,72.5,57.3,42.0,42.6,36.8,33.3,74,49,24,30.33,30.13,24,6,27,0.00
2013-10-14,64.7,58.4,50.2,61.4,53.4,40.7,95,84,49,30.14,29.67,29,12,33,0.35
2013-10-15,56.3,48.2,40.9,46.0,39.3,36.1,90,73,53,30.15,29.86,27,10,30,0.01
2013-10-16,58.4,47.1,37.8,41.6,36.5,33.9,88,68,42,30.15,29.96,18,4,18,0.00
2013-10-17,64.3,47.1,35.8,42.1,37.3,32.6,94,72,40,30.08,29.92,20,5,22,0.00
2013-10-18,44.2,38.7,33.8,40.1,35.2,30.3,94,87,79,30.16,30.08,17,5,18,0.02
2013-10-19,71.4,48.2,29.7,42.4,34.8,26.9,96,66,28,30.08,29.83,20,5,21,0.00
2013-10-20,69.8,53.1,40.9,44.3,39.3,34.8,82,62,38,30.00,29.75,17,5,19,0.00
2013-10-21,63.9,48.2,32.3,40.4,35.0,29.8,94,63,34,30.11,29.94,24,4,26,0.00
2013-10-22,65.2,52.4,41.6,44.3,39.3,34.6,87,63,38,30.10,29.92,24,6,26,0.00
2013-10-23,69.6,48.8,34.3,46.3,38.1,31.4,93,69,40,30.18,29.97,26,6,30,0.00
2013-10-24,51.2,43.1,36.4,38.7,31.0,24.4,91,65,38,30.42,30.18,16,3,17,0.00
2013-10-25,59.6,43.9,30.1,37.3,30.1,24.5,85,61,34,30.41,30.08,24,7,25,0.00
2013-10-26,60.5,48.1,38.8,40.6,32.3,24.9,91,59,28,30.23,30.04,22,5,26,0.00
2013-10-27,73.5,50.6,31.5,40.0,32.0,24.4,83,53,28,30.15,29.80,25,8,28,0.00
2013-10-28,63.4,51.3,38.2,55.5,44.8,31.4,90,79,60,30.01,29.86,20,6,23,0.00
2013-10-29,60.4,54.7,47.3,59.8,53.5,46.1,100,96,90,29.98,29.81,16,7,18,0.00
2013-10-30,49.2,46.2,42.0,48.2,45.1,39.9,100,96,89,29.94,29.74,12,4,15,0.04
2013-10-31,61.4,48.2,38.5,46.5,39.6,33.9,100,76,40,29.75,29.58,22,6,26,0.00
2013-11-1,62.6,49.1,37.4,42.3,36.2,32.4,85,63,37,30.09,29.69,27,8,33,0.00
2013-11-2,62.9,45.4,31.5,35.4,30.4,27.0,85,60,27,30.26,30.04,15,5,17,0.00
2013-11-3,66.3,52.6,40.5,39.9,36.0,31.7,71,54,37,30.04,29.63,38,18,40,0.00
2013-11-4,60.6,50.4,41.1,41.5,38.4,34.2,87,65,43,30.04,29.61,29,9,33,0.00
2013-11-5,56.6,44.7,36.2,56.0,42.5,34.4,100,92,73,30.11,29.74,25,7,26,1.18
2013-11-6,46.5,36.9,30.9,39.7,33.2,29.1,95,87,68,30.32,30.10,17,4,22,0.00
2013-11-7,56.0,41.9,30.9,40.9,34.3,28.6,92,76,49,30.47,30.23,11,3,12,0.00
2013-11-8,70.7,51.7,36.2,39.9,35.9,32.6,88,59,28,30.23,29.73,38,11,40,0.00
2013-11-9,63.7,49.2,35.0,40.8,36.5,31.6,90,64,37,30.28,29.89,16,4,19,0.00
2013-11-10,61.5,47.1,35.1,46.0,39.1,31.3,92,75,51,30.36,30.15,20,6,22,0.00
2013-11-11,47.1,37.2,26.1,46.2,32.6,15.4,97,84,64,30.74,30.11,31,10,31,0.00
2013-11-12,37.9,24.8,13.2,16.2,11.9,7.7,84,60,30,30.94,30.65,20,4,23,0.00
2013-11-13,60.2,39.1,20.0,38.6,25.5,13.3,80,60,43,30.65,30.04,26,10,27,0.00
2013-11-14,56.7,44.6,37.1,36.7,29.5,22.3,77,56,41,30.04,29.88,21,5,21,0.00
2013-11-15,60.1,43.8,25.5,45.2,35.6,23.0,95,75,48,29.88,29.52,21,7,23,0.00
2013-11-16,66.6,55.3,47.1,47.4,39.5,32.7,84,59,30,29.52,29.22,25,7,25,0.00
2013-11-17,59.1,48.2,32.5,40.0,31.2,21.7,82,55,24,30.11,29.20,36,11,40,0.00
2013-11-18,60.1,41.7,26.5,33.4,26.1,21.7,87,58,25,30.27,30.08,19,5,21,0.00
2013-11-19,63.3,46.0,30.5,38.4,30.5,22.8,79,57,38,30.17,29.78,29,11,34,0.00
2013-11-20,66.7,52.9,46.0,44.8,38.5,29.2,90,59,43,29.84,29.67,17,7,21,0.00
2013-11-21,45.7,29.0,21.5,41.8,24.2,16.6,91,82,72,30.62,29.84,29,12,35,0.00
2013-11-22,30.7,23.7,16.5,17.9,13.9,10.3,81,67,46,30.77,30.61,24,6,27,0.00
2013-11-23,29.9,24.6,16.9,19.6,15.7,11.3,79,69,53,30.87,30.68,20,7,22,0.00
2013-11-24,32.5,23.1,14.5,19.3,14.3,10.5,86,70,50,30.76,30.26,18,7,20,0.00
2013-11-25,42.8,32.0,25.9,31.2,24.8,19.2,81,75,62,30.28,30.18,17,6,18,0.00
2013-11-26,38.2,27.5,18.8,24.9,16.4,7.3,87,65,34,30.50,30.27,24,7,29,0.00
2013-11-27,41.5,26.4,9.6,21.1,14.6,3.8,84,62,42,30.50,30.12,22,7,25,0.00
2013-11-28,38.3,28.5,22.2,26.9,21.9,18.3,89,76,62,30.48,30.14,21,5,23,0.00
2013-11-29,56.6,34.1,18.5,34.9,25.7,15.5,90,74,44,30.48,30.13,22,7,26,0.00
2013-11-30,59.8,40.5,24.9,36.2,29.9,22.4,92,69,37,30.14,30.06,13,3,14,0.00
2013-12-1,55.9,39.1,25.2,38.2,30.9,22.1,92,74,50,30.11,29.81,10,2,10,0.00
2013-12-2,67.8,46.5,31.3,38.8,33.9,27.4,90,65,32,29.81,29.50,16,3,16,0.00
2013-12-3,55.9,42.6,34.1,38.7,33.8,30.8,89,72,51,29.64,29.47,22,8,25,0.00
2013-12-4,34.0,22.6,15.1,31.1,17.9,7.7,94,82,67,30.21,29.61,23,10,25,0.00
2013-12-5,16.2,13.7,8.9,9.7,1.8,-1.4,78,59,48,30.52,30.21,19,8,23,0.00
2013-12-6,14.1,10.0,3.4,-0.7,-4.2,-6.4,68,52,44,30.76,30.50,19,8,21,0.00
2013-12-7,16.7,8.7,-2.5,10.8,-0.2,-7.5,87,68,45,30.80,30.37,17,6,17,0.00
2013-12-8,23.3,15.3,4.0,19.8,12.5,1.0,91,88,86,30.37,30.02,16,5,18,0.00
2013-12-9,18.6,8.2,-0.7,6.1,1.5,-5.4,88,74,55,30.50,30.27,15,5,17,0.00
2013-12-10,40.1,23.6,10.5,23.9,13.9,5.2,82,67,48,30.37,30.14,20,5,20,0.00
2013-12-11,24.7,18.3,12.4,19.0,11.0,5.2,87,74,55,30.73,30.27,22,6,25,0.00
2013-12-12,46.3,26.7,11.1,26.0,16.9,5.2,85,68,44,30.57,30.08,15,4,17,0.00
2013-12-13,43.7,28.5,18.9,32.7,23.6,15.4,93,83,64,30.08,29.80,18,5,22,0.00
2013-12-14,31.9,24.3,17.9,23.6,19.2,14.1,89,81,65,30.30,30.08,20,6,24,0.00
2013-12-15,61.6,38.7,21.8,32.0,25.2,18.7,89,63,31,30.21,29.98,13,3,18,0.00
2013-12-16,61.3,42.8,30.0,33.0,27.9,21.8,77,58,32,30.16,29.98,12,3,16,0.00
2013-12-17,51.8,36.6,25.2,32.8,25.6,21.3,92,68,38,30.36,30.14,15,5,17,0.00
2013-12-18,64.1,45.9,33.7,33.4,28.3,24.0,68,52,28,30.14,29.67,19,8,21,0.00
2013-12-19,48.1,35.6,17.1,36.0,27.8,14.0,88,74,61,29.89,29.60,27,10,29,0.00
2013-12-20,22.0,17.6,13.8,14.9,12.0,9.3,88,78,70,30.05,29.89,24,6,24,0.00
2013-12-21,26.9,22.4,18.2,20.8,17.2,13.8,92,80,69,29.97,29.75,22,6,22,0.00
2013-12-22,30.1,21.6,15.6,20.5,15.6,10.0,92,78,61,30.43,29.91,17,6,21,0.00
2013-12-23,20.7,15.6,11.0,12.6,10.2,6.8,88,79,63,30.67,30.42,17,5,17,0.00
2013-12-24,28.5,22.8,14.0,27.0,20.2,10.2,94,90,85,30.54,30.12,23,8,27,0.00
2013-12-25,47.4,31.3,18.6,32.2,23.6,16.7,95,75,44,30.41,30.32,20,5,22,0.00
2013-12-26,52.3,36.2,23.2,27.9,22.1,17.6,82,59,35,30.33,30.18,17,5,18,0.00
2013-12-27,63.5,39.7,22.7,28.5,23.7,16.8,82,57,23,30.32,30.10,22,6,22,0.00
2013-12-28,60.2,39.9,25.0,32.5,27.2,16.4,83,64,29,30.13,29.77,31,10,34,0.00
2013-12-29,24.8,15.1,6.5,16.0,0.9,-5.3,69,54,37,30.45,30.13,29,9,31,0.00
2013-12-30,49.1,28.0,6.7,28.0,15.2,-1.4,75,59,41,30.33,30.18,21,6,24,0.00
2013-12-31,54.0,34.0,18.7,30.5,23.0,15.2,91,67,38,30.33,29.97,33,8,35,0.00
2014-1-1,23.7,13.9,7.3,17.0,9.8,4.2,90,83,72,30.49,30.00,26,10,29,0.00
2014-1-2,27.5,13.9,5.3,22.1,10.4,2.1,90,86,80,30.49,30.41,16,4,16,0.00